Overview Statistics Trail Chart Weather Telemetry Raw packets
 

This is the latest recevied weather packets stored in our database for station/object DO1BDB-12. If no packets are shown the sender has not sent any weather packets the latest 10 day(s).

<< 320 321 322 323 324 325 326 >>
Time Temp. Humidity Pressure Rain* Wind** Luminosity Snow
1788162311 18.33° C 90% 101 hPa - - - -
1788162245 18.33° C 93% 101 hPa - - - -
1788162179 18.33° C 93% 101 hPa - - - -
1788162113 18.33° C 94% 101 hPa - - - -
1788162048 18.33° C 94% 101 hPa - - - -
1788161982 18.33° C 94% 101 hPa - - - -
1788161916 17.78° C 94% 101 hPa - - - -
1788161850 18.33° C 92% 101 hPa - - - -
1788161784 18.33° C 93% 101 hPa - - - -
1788161718 18.33° C 93% 101 hPa - - - -
1788161653 18.33° C 94% 101 hPa - - - -
1788161587 18.33° C 94% 101 hPa - - - -
1788161521 18.33° C 96% 101 hPa - - - -
1788161455 17.78° C 96% 101 hPa - - - -
1788161389 17.78° C 95% 101 hPa - - - -
1788161323 18.33° C 96% 101 hPa - - - -
1788161257 18.33° C 94% 101 hPa - - - -
1788161192 18.33° C 94% 101 hPa - - - -
1788161127 18.89° C 90% 101 hPa - - - -
1788161060 18.89° C 90% 101 hPa - - - -
1788160994 19.44° C 90% 101 hPa - - - -
1788160928 19.44° C 89% 101 hPa - - - -
1788160862 19.44° C 87% 101 hPa - - - -
1788160797 20° C 85% 101 hPa - - - -
1788160731 20° C 86% 101 hPa - - - -

* Rain since midnight (hover to see other rain measurements)
** Current wind speed in m/s (hover to see current wind gust speed)